Whiteman AFB, MO

6:02 AM CDT on July 24, 2017 (GMT -0500)
Whiteman Air Force Base

Weather History for KSZL - November, 2011

Change the Weather History Date:

Monday, November 28, 2011

  Actual Average Record
Temperature  
Mean Temperature 32 °F -  
Max Temperature 37 °F 48 °F 71 °F (1998)
Min Temperature 27 °F 33 °F 23 °F (2013)
Degree Days  
Heating Degree Days 33    
Moisture  
Dew Point 27 °F    
Average Humidity 80    
Maximum Humidity 99    
Minimum Humidity 68    
Precipitation  
Precipitation 0.00 in - - ()
Sea Level Pressure  
Sea Level Pressure 30.11 in    
Wind  
Wind Speed 7 mph (North)    
Max Wind Speed 12 mph    
Max Gust Speed -    
Visibility 10 miles    
Events      
Averages and records for this station are not official NWS values.
T = Trace of Precipitation, MM = Missing Value Source: NWS Daily Summary

Daily Weather History Graph

Daily Weather History Graph

Search for Another Location

Airport or City:

Trip Planner

Search our weather history database for the weather conditions in past years. The results will help you decide how hot, cold, wet, or windy it might be!

Date:

Astronomy

Nov. 28, 2011 Rise Set
Actual Time 7:10 AM CST 4:53 PM CST
Civil Twilight 6:40 AM CST 5:23 PM CST
Nautical Twilight 6:08 AM CST 5:55 PM CST
Astronomical Twilight 5:36 AM CST 6:27 PM CST
Moon 10:20 AM CST (11/28) 8:40 PM CST (11/28)
Length of Visible Light 10h 42m
Length of Day
9h 43m
Waxing Crescent, 16% of the Moon is Illuminated
Nov 28
Waxing Crescent
Dec 2
First Quarter
Dec 10
Full
Dec 17
Last Quarter
Dec 24
New

Hourly Weather History & Observations

Time (CST) Temp. Windchill Dew Point Humidity Pressure Visibility Wind Dir Wind Speed Gust Speed Precip Events Conditions
12:55 AM 32.5 °F 26.2 °F 25.9 °F 76% 30.19 in 10.0 mi NNE 6.9 mph - N/A   Overcast
1:55 AM 32.5 °F 26.2 °F 25.9 °F 76% 30.19 in 10.0 mi NNE 6.9 mph - N/A   Overcast
2:55 AM 32.4 °F 25.3 °F 25.7 °F 76% 30.18 in 10.0 mi North 8.1 mph - N/A   Overcast
3:55 AM 32.4 °F 26.9 °F 26.8 °F 80% 30.18 in 10.0 mi North 5.8 mph - N/A   Overcast
4:55 AM 32.5 °F 28.1 °F 26.4 °F 78% 30.18 in 10.0 mi NE 4.6 mph - N/A   Overcast
5:55 AM 32.0 °F 25.6 °F 25.2 °F 76% 30.19 in 10.0 mi NNE 6.9 mph - N/A   Overcast
6:55 AM 32.0 °F 26.4 °F 25.7 °F 78% 30.18 in 10.0 mi NNE 5.8 mph - N/A   Overcast
7:55 AM 32.0 °F 26.4 °F 26.1 °F 79% 30.18 in 10.0 mi NE 5.8 mph - N/A   Overcast
8:55 AM 32.5 °F 26.2 °F 26.1 °F 77% 30.18 in 10.0 mi NNE 6.9 mph - N/A   Overcast
9:55 AM 33.4 °F 27.3 °F 26.2 °F 75% 30.17 in 10.0 mi ENE 6.9 mph - N/A   Overcast
10:55 AM 34.0 °F 28.8 °F 26.4 °F 74% 30.16 in 10.0 mi ENE 5.8 mph - N/A   Overcast
11:55 AM 34.7 °F 26.9 °F 27.0 °F 73% 30.14 in 10.0 mi North 10.4 mph - N/A   Overcast
12:55 PM 35.2 °F 28.1 °F 27.0 °F 72% 30.11 in 10.0 mi NNE 9.2 mph - N/A   Mostly Cloudy
1:55 PM 36.0 °F 28.0 °F 27.7 °F 72% 30.08 in 10.0 mi NNW 11.5 mph - N/A   Mostly Cloudy
2:55 PM 37.4 °F 30.3 °F 27.9 °F 68% 30.06 in 10.0 mi North 10.4 mph - N/A   Scattered Clouds
2:56 PM 37.4 °F 32.1 °F 28.4 °F 70% 30.06 in 10.0 mi NNW 6.9 mph - N/A   Scattered Clouds
3:55 PM 36.5 °F 29.7 °F 28.2 °F 72% 30.05 in 10.0 mi North 9.2 mph - N/A   Clear
4:55 PM 34.2 °F 27.5 °F 28.0 °F 78% 30.06 in 10.0 mi North 8.1 mph - N/A   Partly Cloudy
4:58 PM 33.8 °F 27.0 °F 28.4 °F 81% 30.05 in 10.0 mi North 8.1 mph - N/A   Mostly Cloudy
5:16 PM 33.8 °F 27.7 °F 28.4 °F 81% 30.05 in 10.0 mi NNW 6.9 mph - N/A   Scattered Clouds
5:55 PM 32.4 °F 25.3 °F 28.2 °F 85% 30.06 in 10.0 mi NNW 8.1 mph - N/A   Scattered Clouds
6:55 PM 30.0 °F 25.2 °F 27.5 °F 90% 30.06 in 10.0 mi North 4.6 mph - N/A   Partly Cloudy
7:55 PM 29.8 °F 23.0 °F 27.9 °F 92% 30.06 in 10.0 mi NNW 6.9 mph - N/A   Partly Cloudy
8:55 PM 29.1 °F 22.1 °F 28.2 °F 96% 30.06 in 10.0 mi NNW 6.9 mph - N/A   Clear
9:55 PM 27.5 °F 18.6 °F 27.1 °F 99% 30.07 in 10.0 mi NNW 9.2 mph - N/A   Clear
10:55 PM 28.6 °F 20.7 °F 27.9 °F 97% 30.06 in 10.0 mi NNW 8.1 mph - N/A   Clear
11:55 PM 27.9 °F 20.6 °F 27.7 °F 99% 30.05 in 10.0 mi NNW 6.9 mph - N/A   Clear